Regional Weather Roundup
Issued by NWS

Home | Current Version | Previous Version | Text Only | Print | Product List | Glossary Off
Versions: 1 2 3 4 5 6 7 8 9 10 11 12 13 14 15 16 17 18 19 20 21 22 23 24 25 26 27 28 29 30 31 32 33 34 35 36 37 38 39 40 41 42 43 44 45 46 47 48 49 50

000
ASUS43 KMKX 251100
RWRWI

WISCONSIN REGIONAL WEATHER ROUNDUP
NATIONAL WEATHER SERVICE MILWAUKEE/SULLIVAN WI
600 AM CDT MON JUL 25 2016

NOTE: "FAIR" INDICATES FEW OR NO CLOUDS BELOW 12,000 FEET WITH NO
SIGNIFICANT WEATHER AND/OR OBSTRUCTIONS TO VISIBILITY.

WIZ001-002-006>008-014>016-023>028-251200-
NORTHWEST WISCONSIN

CITY           SKY/WX    TMP DP  RH WIND       PRES   REMARKS
SUPERIOR ARPT  CLEAR     62  60  93 SW5       29.97R
ASHLAND        CLEAR     61  58  90 SW6       29.96R
HAYWARD        CLEAR     59  57  93 SW3       29.99R
SIREN          CLEAR     63  61  94 CALM      30.00R
CUMBERLAND     CLEAR     59  59 100 W5        30.01R
RICE LAKE      CLEAR     61  59  91 W3        30.01S
CHETEK         CLEAR     60  60  99 W5        30.00S
LADYSMITH      CLEAR     60  59  94 CALM      30.00S
EAU CLAIRE     NOT AVBL
MENOMONIE      CLEAR     65  61  87 W3        30.00S
NEW RICHMOND   CLEAR     61  59  94 CALM      30.02S
OSCEOLA        CLEAR     61  61 100 CALM      30.04R
$$

WIZ003>005-009-010-017-018-251200-
NORTH CENTRAL WISCONSIN

CITY           SKY/WX    TMP DP  RH WIND       PRES   REMARKS
MANITOWISH WTR PTCLDY    60  60 100 W6        29.96S
ARBOR VITAE    CLEAR     62  60  93 W3        29.96S
WOODRUFF       CLEAR     62  60  93 W3        29.96S
RHINELANDER    CLEAR     62  59  90 W7        29.98R
EAGLE RIVER    CLEAR     62  61  95 W6        29.95R
LAND O LAKES   CLEAR     61  59  94 SW3       29.96R
PHILLIPS       CLEAR     60  60 100 CALM      29.98R
TOMAHAWK       CLEAR     58  57  95 CALM      29.98R
MEDFORD        CLEAR     61  61 100 W7        29.98S
MERRILL        CLEAR     62  62 100 W6        29.98R
$$

WIZ029-030-035-036-043>047-251200-
CENTRAL WISCONSIN

CITY           SKY/WX    TMP DP  RH WIND       PRES   REMARKS
WAUSAU         CLEAR     64  61  90 NW3       29.96R
MOSINEE        CLEAR     63  63 100 NW9       29.99R
MARSHFIELD     CLEAR     63  59  87 W6        29.99R
STEVENS POINT  CLEAR     63  61  93 W3        29.98R
WAUPACA        CLEAR     67  65  93 W3        29.96S
WAUTOMA        CLEAR     64  63  96 W5        29.98S
WISC RAPIDS    CLEAR     64  60  87 W5        30.00R
CAMP DOUGLAS   CLEAR     61  60  97 W7        30.00R
$$

WIZ011>013-019>022-031-037>040-048>050-251200-
NORTHEAST WISCONSIN

CITY           SKY/WX    TMP DP  RH WIND       PRES   REMARKS
ANTIGO         CLEAR     60  60  99 W7        29.97R
SHAWANO        CLEAR     66  62  85 W6        29.94R
OCONTO         CLEAR     64  64 100 W5        29.91R
STURGEON BAY   CLEAR     68  63  84 W5        29.92R
GREEN BAY      CLEAR     65  65 100 W7        29.93R
MANITOWOC      NOT AVBL
APPLETON       PTCLDY    64  64 100 W9        29.94S
CLINTONVILLE   CLEAR     64  61  88 W7        29.94R
OSHKOSH        CLEAR     67  62  84 W6        29.95R
$$

WIZ032>034-041-042-053>061-251200-
SOUTHWEST WISCONSIN

CITY           SKY/WX    TMP DP  RH WIND       PRES   REMARKS
LA CROSSE      CLEAR     68  64  87 CALM      30.01R
SPARTA         CLEAR     58  57  99 CALM      30.01R
VIROQUA        CLEAR     63  63 100 W6        30.03R
BOSCOBEL       CLEAR     65  64  97 S3        30.02R
PRAIRIE DU CHI CLEAR     65  63  93 CALM      30.03R
PLATTEVILLE    CLEAR     66  66 100 W5        30.03S
$$

WIZ056-057-062-063-064-067-068-251200-
SOUTH CENTRAL WISCONSIN

CITY           SKY/WX    TMP DP  RH WIND       PRES   REMARKS
REEDSBURG      CLEAR     63  63 100 CALM      29.99S
BARABOO/DELLS  CLEAR     63  60  93 CALM      30.00R
LONE ROCK      NOT AVBL
MINERAL POINT  CLEAR     68  64  88 NW3       30.03R
MADISON        PTCLDY    68  64  87 W3        29.99R
MIDDLETON      CLEAR     66  65  97 W5        30.00S
WATERTOWN      CLEAR     66  66 100 CALM      29.98R
MONROE         CLEAR     68  64  88 W7        30.01R
JANESVILLE     CLEAR     68  68 100 NW3       29.99R
$$

WIZ051-052-058>065-066-070>072-251200-
SOUTHEAST WISCONSIN

CITY           SKY/WX    TMP DP  RH WIND       PRES   REMARKS
MILWAUKEE      PTCLDY    75  65  70 W9        29.96R
WAUKESHA       CLEAR     66  63  88 SW6       29.99R
MILWAUKEE/TIMM CLEAR     70  61  73 SW5       29.98R
RACINE         PTCLDY    72  65  78 W6        29.98R
BURLINGTON     CLEAR     69  66  91 W6        29.98R
KENOSHA        PTCLDY    68  66  93 W5        29.98R
FOND DU LAC    CLEAR     68  63  84 W7        29.96R
SHEBOYGAN      CLEAR     67  63  87 W7        29.95R
WEST BEND      CLEAR     68  63  83 W5        29.97R
JUNEAU         CLEAR     66  64  91 CALM      29.98R
$$

LSZ147-162-251200-
LAKE SUPERIOR

STATION/POSITION TIME  TEMP    WIND        PRES    WAVE
                       AIR SEA DIR/SP/G            HT/PER
                 (UTC) (F)     (DEG/KT/KT) (MB)    (FT/S)
W MID LAKE BUOY  0950   64 58  260/ 12/ 14 1010.9R   2/ 4
DEVILS ISLAND    1000   65     260/ 14/ 16 1012.9R
SAXON HARBOR     1000   66     200/  6/  8 1013.2S
$$

LMZ867-665-643>646-251200-
LAKE MICHIGAN

STATION/POSITION TIME  TEMP    WIND        PRES    WAVE
                       AIR SEA DIR/SP/G            HT/PER
                 (UTC) (F)     (DEG/KT/KT) (MB)    (FT/S)
CHAMBERS ISLAND  1000   68     210/  4/  6 1011.9S
S GREEN BAY BUOY 1030   70 74  250/ 12/ 14   N/A
N MID LAKE BUOY  0950   70 68  230/ 12/ 14 1010.3S   2/ 6
NORTHPORT PIER   1000   70     280/  4/  6 1011.5S
KEWAUNEE LAKESHO 1000   69     290/  4/  5 1012.4S
SHEBOYGAN LAKESH 1000   72     280/ 12/ 14 1013.4R
PORT WASHINGTON  1000   72     290/  2/  5 1014.2
MILWAUKEE LAKESH 1010   74     290/  7/  8   N/A
S MID LAKE BUOY  0950   74 72  290/  8/ 10 1012.3F   2/ 4
KENOSHA   LAKESH 1000   74     280/  8/ 11 1013.9R
$$

TC  - TEMPERATURE IN CELSIUS
VSB - VISIBILITY IN STATUTE MILES
WCI - WIND CHILL INDEX
HX  - HEAT INDEX





USA.gov is the U.S. government's official web portal to all federal, state and local government web resources and services.